Погода в Тулуне

Погода в Тулуне : погода сейчас, прогноз погоды и архив. Всё, что Вы хотите узнать о погоде в Тулуне!

Хотите узнать прогноз погоды в Тулуне? Тогда Вам сюда: Погода в Тулуне

Поиск расширенной информации на нашем сайте:

Другие новости

Новости СМИ2

Главная страница сайта

Новости сайта

03.07.2017

Напоминаем, что на нашем специализированном сайте Метеоцентр.Азия вы можете получить высокодетализированные автоматические прогнозы погоды по пунктам России, СНГ и мира в авиационном формате (включающие направление и скорость ветра, видимость, явления погоды, количество и форму облачности, нижнюю и верхнюю границу облачности).


Погода в Тулуне - сегодня

Время (UTC), дата Ветер
(°,м/с) 
Видим.   Явления Облачность Т
(°С)
Тd
(°С)
f(%) Тe
(°С)
Pmin
(гПа)
dP
(гПа)
Po
(мм)
O2
(г/м3)
Тmin Tmax R s Состояние
почвы
09 15.08.17 050 (СВ) 20000 м    9/6 600 м кучево-дожд., средняя 
[Cb calv|Ac trans]
+18.7 +6.7 46 +19  1017.7  -1  718  270           
12 15.08.17 070 (В) 20000 м    9/9 600 м кучево-дожд. 
[Cb calv]
+17 +8.1 56 +17  1017.9  -0.2  718  271    +19.4       
15 15.08.17 140 (ЮВ) н/о    ясно 
+11.1 +7.4 78 +12  1019.4  0.3  719  277           
18 15.08.17 060 (СВ) н/о    ясно 
+7.2 +5.8 91 +7  1019.8  -0.5  718  281           
21 15.08.17 тихо ()   н/о    ясно 
+6.1 +5.2 94 +6  1019.8  -0.2  718  282           
00 16.08.17 010 (С) 20000 м    3/3 1000 м 
[Sc]
+11.2 +9 86 +13  1018.1  -0.5  718  276  +5.7        сухая 
03 16.08.17 080 (В) 20000 м    8/3 600 м средняя 
[Cu Sc|Ac trans]
+16.8 +8 56 +18  1016.3  -0.6  717  271           
06 16.08.17 110 (В) 20000 м    9/8 600 м средняя 
[Cu Sc|Ac trans]
+18.3 +8.5 53 +19  1014.7  -1.2  716  269           
09 16.08.17 120 (ЮВ) 20000 м    9/6 600 м кучево-дожд., средняя 
[Cb calv|Ac trans]
+18.2 +9.4 56 +20  1013.8  -0.8  716  269           
12 16.08.17 080 (В) 20000 м    9/6 600 м кучево-дожд., средняя 
[Cb calv|Ac trans]
+17.8 +10.4 62 +22  1012.9  -0.9  715  268    +19.3       
15 16.08.17 060 (СВ) н/о    10/4 600 м кучево-дожд., средняя 
[Cb calv|Ac As]
+16.3 +11.2 72 +21  1012.2  -1  714  269           
18 16.08.17 040 (СВ) н/о    10/6 600 м кучево-дожд., средняя 
[Cb calv|Ac As]
+15 +11.4 79 +20  1011.4  -1  713  270           
21 16.08.17 070 (В) н/о  слаб. ливневой дождь  10/10 600 м кучево-дожд. 
[Cb calv]
+13.4 +12.4 94 +19  1009  -2.5  712  271           
00 17.08.17 140 (ЮВ) 20000 м  {ливн. осадки}  9/5 600 м кучево-дожд., средняя 
[Cb calv|Ac trans]
+14.8 +13.3 91 +22  1007.8  -0.8  711  269  +13.3      влажная 
03 17.08.17 250 (З) 20000 м    9/6 600 м кучево-дожд., средняя 
[Cb calv|Ac trans]
+15.1 +12.1 82 +20  1008.2  0.3  711  269           
06 17.08.17 270 (З) 5-11{12}  20000 м  слаб. ливневой дождь  10/10 600 м кучево-дожд. 
[Cb calv]
+13.1 +11.2 88 +16  1010.8  2.1  713  272           
09 17.08.17 280 (З) 5-10{12}  20000 м  {ливн. осадки}  9/8 600 м кучево-дожд., средняя 
[Cb calv|Ac trans]
+14.3 +9.7 74 +16  1013.5  2.6  715  272           
12 17.08.17 310 (СЗ) 20000 м  {ливн. осадки}  4/3 600 м кучево-дожд., средняя 
[Cb calv|Ac trans]
+13.9 +9.9 77 +16  1014.8  1.3  716  273    +18.3  0.1     
15 17.08.17 250 (З) н/о    8/3 600 м средняя, верхняя 
[Sc|Ac trans|Ci sp]
+10.5 +9.4 93 +13  1016.8  1.1  717  276           
18 17.08.17 220 (ЮЗ) н/о    4/0 средняя, верхняя 
[Ac trans|Ci sp]
+8.8 +8.1 95 +10  1017.6  0.4  717  278           
21 17.08.17 040 (СВ) н/о  туман  4/0 верхняя 
[Ci sp]
+9 +8.4 96 +10  1017.7  0.1  717  278           
00 18.08.17 тихо ()   0200 м  туман  4/0 верхняя 
[Ci sp]
+8.9 +8.4 97 +9  1018.5  0.8  718  278  +8.5    0.1    влажная 
03 18.08.17 210 (ЮЗ) 0500 м  туман  10/10 300 м 
[St]
+11.5 +11 97 +16  1018.1  0.2  718  275           
06 18.08.17 240 (ЮЗ) 20000 м  {туман}  9/3 600 м кучево-дожд., средняя, верхняя 
[Cb calv|Ac trans|Ci sp]
+17.2 +9.1 59 +20  1016.5  -0.4  717  270           
09 18.08.17 350 (С) 20000 м    9/1 600 м кучево-дожд., верхняя 
[Cb calv|Ci sp]
+18.6 +10.2 58 +21  1015.2  -1  717  268           
Время (UTC), дата Ветер
(°,м/с) 
Видим.   Явления Облачность Т
(°С)
Тd
(°С)
f(%) Тe
(°С)
Pmin
(гПа)
dP
(гПа)
Po
(мм)
O2
(г/м3)
Тmin Tmax R s Состояние
почвы

Для получения пояснительной информации подведите курсор к названию столбца.

ПОГОДА в Тулуне - архив

Всё, что Вы хотите узнать о погоде в Тулуне - удобно и подробно!

Выберите нужную дату (начиная с 1 января 2015* года) и нажмите кнопку "Найти".
Будут отображены архивные сводки погоды по пункту Тулун, начиная с указанной даты.


Отображать данные в формате CSV (для использования в таблицах Excel)


Внимание! Наш архив погоды предназначен исключительно для личного некоммерческого использования в познавательных целях. Если Вам необходимы официальные справки о состоянии погоды (для производственных, юридических, коммерческих и т.п. целей), обращайтесь в органы Росгидромета.

*Примечание: данная дата относится к архиву по метеостанциям СССР (Россия, СНГ, Балтия).
Архив по метеостанциям Зарубежной Европы и Азии (кроме Китая) хранится 10 дней, по другим регионам земного шара (Китай, Африка, Америка, Австралия, Океания) - 1 день.

Тулун - район местоположения метеостанции


Название, широта, долгота, высота метеостанции:
Тулун 54.6°ш. 100.6°д. 522 м над ур. моря [Российская Федерация]

Дополнительная информация

В oтличие oт бoльшинства пoгoдных сайтoв мы публикуем пoдрoбную метеoинфoрмацию в детальнoм прoфессиoнальнoм фoрмате.

Характеристики температуры и влажнoсти вoздуха измеряются на высoте 2 м в тени вдали oт зданий и деревьев.
Скoрoсть ветра измеряется на высoте 10 м (на урoвне рoста челoвека скoрoсть ветра ниже в 1.5-2 раза). Если метеoстанция нахoдится в гoрoде или в лесу, тo скoрoсть ветра занижена на 2-4 м/с пo сравнению с oткрытым местoм. Скoрoсть ветра над акватoриями крупных рек и oзёр, а также на вершинах хoлмoв на 2-5 м/с выше, чем в oбычных услoвиях.
Атмoсфернoе давление в разных тoчках местнoсти мoжет значительнo oтличаться oт давления на метеoстанции, в зависимoсти oт услoвий рельефа (при пoдъёме на 10 м давление пoнижается примернo на 1 мм рт.ст.).